Simultaneous Nadir Overpasses (SNOs) Predictions

Prediction of SNOs between AQUA and NPP Satellite Orbit:

Table of predicted SNOs for the next 14.0 days since TLE Epoch: 1/4/2014
Index Date (AQUA) Time (AQUA) Lat,Lon (AQUA) SZA (AQUA ) Date (NPP) Time (NPP) Lat,Lon (NPP) SZA (NPP ) Distance(km) Time Diff (sec)
1 01/05/2014 21:00:48 72.76, 96.32 122.85 01/05/2014 21:00:40 72.76, 96.32 122.86 0.10 8
2 01/05/2014 21:49:48 -74.20, -92.99 58.63 01/05/2014 21:50:57 -74.19, -93.07 58.68 2.58 69
3 01/08/2014 12:28:11 -71.54, 42.40 56.20 01/08/2014 12:27:18 -71.54, 42.42 56.15 0.85 53
4 01/08/2014 13:16:58 73.57,-146.13 121.77 01/08/2014 13:17:22 73.57,-146.10 121.73 0.93 24
5 01/11/2014 04:44:21 -72.32, 159.66 57.28 01/11/2014 04:44:01 -72.32, 159.66 57.26 0.13 20
6 01/11/2014 05:33:11 74.16, -28.90 120.84 01/11/2014 05:34:08 74.17, -28.88 120.77 0.81 57
7 01/13/2014 20:11:36 71.22, 106.06 123.46 01/13/2014 20:10:33 71.23, 106.10 123.51 1.84 63
8 01/13/2014 21:00:32 -72.93, -83.28 58.26 01/13/2014 21:00:46 -72.93, -83.32 58.26 1.51 14
9 01/16/2014 12:27:48 71.79,-137.08 122.49 01/16/2014 12:27:20 71.79,-137.12 122.53 1.39 28




NCC Satellite Simultaneous Nadir Overpasses (SNOs) Prediction Service
